ARIANE 5 DEB (SYLDA), 45247

Orbit data source: Space-Track

ARIANE 5 DEB (SYLDA), 45247 is space debris in HEO originally from a launch on Tue, 18 Feb 2020 UTC launched from the French Guiana (FRGUI). Debris objects in space refer to the collection of defunct objects orbiting the Earth. Examples of debris include non-operational satellites, rocket bodies, and fragments generated from explosions, collisions, or faulty payload assembly.

Loading next visibility...
Identifier
45247, 2020-013C
Orbit
HEO
Country
Flag of FRFR
Related business
Manufacturer
ADS/Bremen
Mission
Spacecraft
Bus & Motor
SYLDA 5, Unknown motor
Mass
440 kg wet, 440 kg dry
Launch date (UTC)
2020-02-18 (6 years ago)
Launch vehicle
Unknown
Launch site
French Guiana (FRGUI)
Object type
Payload
Rocket body
Debris
Shape & HBR
Cyl, Unknown HBR
Radar Cross Section
27.391 m², Large (>1 m²)

Expand to show TLE details & history
Last TLE update: 13 hours ago

TLE from 13 hours ago
0 ARIANE 5 DEB (SYLDA)
1 45247U 20013C   25351.97713160  .00036887  00000-0  60447-2 0  9993
2 45247   5.6866 300.7402 6392626 173.2077 203.7393  3.48018004 57650
Epoch: 2025-12-17T23:27Z
TLE epoch observation values (Epoch: 2025-12-17T23:27:04.170Z)
Latitude
0.00005°
Longitude
-137.85764°
Altitude
23,395.103 km
Speed
2.26 km/s
True Right ascension
20h 02m 59s
True Declination
0° 00' 00"
Sunlit
Object was in daylight at epoch
Visualization orbit readout
Latitude
Unknown
Longitude
Unknown
Altitude
Unknown
Speed
Unknown
Apparent Right ascension
Unknown
Apparent Declination
Unknown
Sunlit
N/A
Visualization observer readout
Local Sidereal Time
11:32:00
Azimuth
Unknown
Elevation
Unknown
Doppler factor
Unknown
Orbital elements
Apogee altitude
23,782.372 km
Perigee altitude
259.008 km
Semi-major axis
18,398.827 km
Eccentricity
0.63926
Inclination
5.6866°
RAAN
300.7402°
Arg. of periapsis
173.2077°
True anomaly
186.85061°
Mean anomaly
203.7393°
Eccentric anomaly
194.54239°
Mean motion
0.86968 °/min
Orbital period
413.95 mins
BSTAR
0.0060447
Loading maneuver chart data...
Computing Atmospheric mass density...
Loading historical data...
Loading historical data...
Loading historical data...
Loading historical data...
Loading historical data...
Loading historical data...
Loading historical data...
Other satellites on launch #13 in the year 2020 (2020-02-18 UTC)

Documentation

Showing up to 5 results
|